Regional Weather Roundup
Issued by NWS Green Bay, WI

Home | Current Version | Previous Version | Graphics & Text | Print | Product List | Glossary Off
Versions: 1 2 3 4 5 6 7 8 9 10 11 12 13 14 15 16 17 18 19 20 21 22 23 24 25 26 27 28 29 30 31 32 33 34 35 36 37 38 39 40 41 42 43 44 45 46 47 48 49 50

000
ASUS43 KGRB 292311
RWRGRB

NORTH-CENTRAL AND NORTHEAST WISCONSIN REGIONAL WEATHER ROUNDUP
NATIONAL WEATHER SERVICE GREEN BAY WI
600 PM CDT SUN MAY 29 2016

WIZ005-009-010>012-018-019-300000-
NORTH CENTRAL WISCONSIN

CITY           SKY/WX    TMP DP  RH WIND       PRES   REMARKS
IRONWOOD       CLOUDY    64  55  72 W15G28    29.85R
MANITOWISH WTR NOT AVBL
ARBOR VITAE    CLOUDY    66  56  72 W9G20     29.91R
EAGLE RIVER      N/A     64  55  74 NW12G20   29.89R
LAND O LAKES   PTSUNNY   65  59  82 W9G18     29.89S
RHINELANDER    CLOUDY    68  54  60 W18G30    29.90R
PHILLIPS       CLOUDY    69  56  64 W8G17     29.91S
ANTIGO         SUNNY     69  59  68 W18G26    29.90S
TOMAHAWK       PTSUNNY   69  55  59 W14G22    29.91R
MERRILL        MOSUNNY   70  57  63 W14G22    29.91R
$$

WIZ013-073-300000-
NORTHEAST WISCONSIN

CITY           SKY/WX    TMP DP  RH WIND       PRES   REMARKS
IRON MOUNTAIN  LGT RAIN  67  60  78 W9        29.84R
MARINETTE      CLOUDY    68  63  84 W5        29.85R
OCONTO         MOSUNNY   74  63  69 W16G22    29.86S
$$

WIZ017-030-035>037-045-300000-
CENTRAL WISCONSIN

CITY           SKY/WX    TMP DP  RH WIND       PRES   REMARKS
MEDFORD        MOSUNNY   70  57  63 W14       29.93R
WAUSAU         PTSUNNY   74  57  55 W15       29.89S
MOSINEE        PTSUNNY   72  57  60 W15G22    29.92S
MARSHFIELD     MOSUNNY   72  56  57 W14       29.92R
WISC RAPIDS    MOSUNNY   78  53  41 NW8       29.93S
STEVENS POINT  MOSUNNY   73  56  57 W10G21    29.92S
WAUPACA        MOSUNNY   78  57  48 W16G22    29.90F
SHAWANO        MOSUNNY   76  60  58 W10       29.88F
CLINTONVILLE   MOSUNNY   73  55  53 W17       29.89S
WAUTOMA        MOSUNNY   77  57  50 W14       29.92
$$

WIZ038-039-048-051-300000-
FOX VALLEY

CITY           SKY/WX    TMP DP  RH WIND       PRES   REMARKS
NWS GREEN BAY  MOSUNNY   75  61  61 W17G28    29.88F
APPLETON       PTSUNNY   73  57  56 W12G20    29.90S
OSHKOSH        SUNNY     76  58  53 W9        29.90S
FOND DU LAC    SUNNY     77  58  51 W13G20    29.92R
$$

WIZ022-050-052-300000-
EAST CENTRAL WISCONSIN

CITY           SKY/WX    TMP DP  RH WIND       PRES   REMARKS
EPHRAIM        MOCLDY    68  60  76 SW10G18   29.84S
STURGEON BAY   NOT AVBL
MANITOWOC      SUNNY     75  59  57 W12       29.90S
SHEBOYGAN      MOSUNNY   76  58  53 W14G24    29.91S
$$

LMZ563-521-522-541>543-300000-
LAKESHORE

STATION/POSITION TIME  TEMP    WIND        PRES    VSBY  WAVE
                       AIR SEA DIR/SP/G                  HT/PER
                 (UTC) (F)     (DEG/KT/KT) (MB)    (MI)  (FT/S)
SHEBOYGAN LKSHOR 2300   76     280/ 15/ 18 1012.8F
KEWAUNEE LKSHORE 2200   73     260/ 12/ 16 1011.4F
NORTHPORT PIER   2200   74     210/  4/ 13 1010.2F
N MID LAKE BUOY  2250   52 48  190/ 16/ 17 1009.8F         3/ 5
CHAMBERS ISLAND  2200   69     160/  6/ 10 1010.5S
MENOMINEE LKSHOR 2206   73     230/ 18/ 24 1009.6S
$$




USA.gov is the U.S. government's official web portal to all federal, state and local government web resources and services.